Time,TemperatureF,DewpointF,PressureIn,WindDirection,WindDirectionDegrees,WindSpeedMPH,WindSpeedGustMPH,Humidity,HourlyPrecipIn,Conditions,Clouds,dailyrainin,SoftwareType,DateUTC
2013-04-25 00:03:00,65.0,54.0,-100.00,WSW,250,3.0,5.0,69,0.00,,,-99.99,,2013-04-25 04:03:00,
2013-04-25 00:13:00,65.0,54.0,-100.00,WSW,250,3.0,5.0,69,0.00,,,-99.99,,2013-04-25 04:13:00,
2013-04-25 00:23:00,65.0,54.0,-100.00,WSW,250,3.0,5.0,69,0.00,,,-99.99,,2013-04-25 04:23:00,
2013-04-25 00:33:00,64.0,54.0,-100.00,WSW,247,3.0,5.0,70,0.00,,,-99.99,,2013-04-25 04:33:00,
2013-04-25 00:43:00,64.0,54.0,-100.00,WSW,247,3.0,5.0,70,0.00,,,-99.99,,2013-04-25 04:43:00,
2013-04-25 00:52:00,64.0,54.0,-100.00,WSW,256,3.0,4.0,72,0.00,,,-99.99,,2013-04-25 04:52:00,
2013-04-25 01:03:00,64.0,54.0,-100.00,WSW,256,3.0,4.0,72,0.00,,,-99.99,,2013-04-25 05:03:00,
2013-04-25 01:12:00,62.0,55.0,-100.00,WSW,251,2.0,3.0,76,0.00,,,-99.99,,2013-04-25 05:12:00,
2013-04-25 01:22:00,62.0,55.0,-100.00,WSW,251,2.0,3.0,76,0.00,,,-99.99,,2013-04-25 05:22:00,
2013-04-25 01:32:00,62.0,55.0,-100.00,WSW,254,3.0,4.0,76,0.00,,,-99.99,,2013-04-25 05:32:00,
2013-04-25 01:42:00,62.0,55.0,-100.00,WSW,254,3.0,4.0,76,0.00,,,-99.99,,2013-04-25 05:42:00,
2013-04-25 01:52:00,62.0,55.0,-100.00,WSW,250,3.0,5.0,77,0.00,,,-99.99,,2013-04-25 05:52:00,
2013-04-25 02:02:00,64.0,54.0,-100.00,NNW,333,5.0,9.0,70,0.00,,,-99.99,,2013-04-25 06:02:00,
2013-04-25 02:12:00,64.0,54.0,-100.00,NNW,333,5.0,9.0,70,0.00,,,-99.99,,2013-04-25 06:12:00,
2013-04-25 02:22:00,64.0,54.0,-100.00,NNW,333,5.0,9.0,70,0.00,,,-99.99,,2013-04-25 06:22:00,
2013-04-25 02:32:00,63.0,50.0,-100.00,North,8,9.0,15.0,61,0.00,,,-99.99,,2013-04-25 06:32:00,
2013-04-25 02:42:00,63.0,50.0,-100.00,North,8,9.0,15.0,61,0.00,,,-99.99,,2013-04-25 06:42:00,
2013-04-25 02:52:00,63.0,49.0,-100.00,North,357,8.0,11.0,60,0.00,,,-99.99,,2013-04-25 06:52:00,
2013-04-25 03:02:00,62.0,48.0,-100.00,NNE,18,7.0,13.0,60,0.00,,,-99.99,,2013-04-25 07:02:00,
2013-04-25 03:12:00,62.0,48.0,-100.00,NNE,18,7.0,13.0,60,0.00,,,-99.99,,2013-04-25 07:12:00,
2013-04-25 03:22:00,62.0,48.0,-100.00,NNE,18,7.0,13.0,60,0.00,,,-99.99,,2013-04-25 07:22:00,
2013-04-25 03:32:00,61.0,47.0,-100.00,North,0,6.0,12.0,58,0.00,,,-99.99,,2013-04-25 07:32:00,
2013-04-25 03:42:00,61.0,47.0,-100.00,North,0,6.0,12.0,58,0.00,,,-99.99,,2013-04-25 07:42:00,
2013-04-25 03:52:00,60.0,46.0,-100.00,North,8,10.0,16.0,58,0.00,,,-99.99,,2013-04-25 07:52:00,
2013-04-25 04:02:00,59.0,44.0,-100.00,NNE,32,7.0,13.0,56,0.00,,,-99.99,,2013-04-25 08:02:00,
2013-04-25 04:11:00,59.0,44.0,-100.00,NNE,32,7.0,13.0,56,0.00,,,-99.99,,2013-04-25 08:11:00,
2013-04-25 04:22:00,59.0,44.0,-100.00,NNE,32,7.0,13.0,56,0.00,,,-99.99,,2013-04-25 08:22:00,
2013-04-25 04:32:00,58.0,41.0,-100.00,North,349,10.0,17.0,52,0.00,,,-99.99,,2013-04-25 08:32:00,
2013-04-25 04:42:00,58.0,41.0,-100.00,North,349,10.0,17.0,52,0.00,,,-99.99,,2013-04-25 08:42:00,
2013-04-25 04:52:00,57.0,42.0,-100.00,NNW,340,7.0,13.0,56,0.00,,,-99.99,,2013-04-25 08:52:00,
2013-04-25 05:01:00,57.0,40.0,-100.00,North,354,6.0,9.0,54,0.00,,,-99.99,,2013-04-25 09:01:00,
2013-04-25 05:11:00,57.0,40.0,-100.00,North,354,6.0,9.0,54,0.00,,,-99.99,,2013-04-25 09:11:00,
2013-04-25 05:21:00,56.0,40.0,-100.00,North,356,7.0,14.0,55,0.00,,,-99.99,,2013-04-25 09:21:00,
2013-04-25 05:33:00,56.0,40.0,-100.00,North,356,7.0,14.0,55,0.00,,,-99.99,,2013-04-25 09:33:00,
2013-04-25 05:42:00,55.0,39.0,-100.00,NNE,14,10.0,18.0,54,0.00,,,-99.99,,2013-04-25 09:42:00,
2013-04-25 05:53:00,55.0,39.0,-100.00,NNE,14,10.0,18.0,54,0.00,,,-99.99,,2013-04-25 09:53:00,
2013-04-25 06:02:00,55.0,39.0,-100.00,North,352,9.0,15.0,55,0.00,,,-99.99,,2013-04-25 10:02:00,
2013-04-25 06:12:00,55.0,39.0,-100.00,North,352,9.0,15.0,55,0.00,,,-99.99,,2013-04-25 10:12:00,
2013-04-25 06:22:00,54.0,39.0,-100.00,NNE,27,4.0,7.0,58,0.00,,,-99.99,,2013-04-25 10:22:00,
2013-04-25 06:33:00,54.0,39.0,-100.00,NNE,27,4.0,7.0,58,0.00,,,-99.99,,2013-04-25 10:33:00,
2013-04-25 06:42:00,54.0,39.0,-100.00,NNE,27,4.0,7.0,58,0.00,,,-99.99,,2013-04-25 10:42:00,
2013-04-25 06:53:00,54.0,38.0,-100.00,North,357,5.0,9.0,56,0.00,,,-99.99,,2013-04-25 10:53:00,
2013-04-25 07:02:00,53.0,39.0,-100.00,NNE,13,6.0,11.0,59,0.00,,,-99.99,,2013-04-25 11:02:00,
2013-04-25 07:12:00,53.0,39.0,-100.00,NNE,13,6.0,11.0,59,0.00,,,-99.99,,2013-04-25 11:12:00,
2013-04-25 07:22:00,53.0,38.0,-100.00,North,7,8.0,12.0,57,0.00,,,-99.99,,2013-04-25 11:22:00,
2013-04-25 07:32:00,53.0,38.0,-100.00,North,7,8.0,12.0,57,0.00,,,-99.99,,2013-04-25 11:32:00,
2013-04-25 07:42:00,53.0,39.0,-100.00,North,354,6.0,10.0,60,0.00,,,-99.99,,2013-04-25 11:42:00,
2013-04-25 07:52:00,53.0,39.0,-100.00,North,354,6.0,10.0,60,0.00,,,-99.99,,2013-04-25 11:52:00,
2013-04-25 08:01:00,52.0,39.0,-100.00,NNE,25,5.0,9.0,60,0.00,,,-99.99,,2013-04-25 12:01:00,
2013-04-25 08:12:00,52.0,39.0,-100.00,NNE,25,5.0,9.0,60,0.00,,,-99.99,,2013-04-25 12:12:00,
2013-04-25 08:21:00,52.0,39.0,-100.00,NNE,25,5.0,9.0,60,0.00,,,-99.99,,2013-04-25 12:21:00,
2013-04-25 08:32:00,52.0,39.0,-100.00,North,356,4.0,5.0,60,0.00,,,-99.99,,2013-04-25 12:32:00,
2013-04-25 08:42:00,52.0,39.0,-100.00,North,356,4.0,5.0,60,0.00,,,-99.99,,2013-04-25 12:42:00,
2013-04-25 08:52:00,53.0,40.0,-100.00,NNE,25,5.0,8.0,62,0.00,,,-99.99,,2013-04-25 12:52:00,
2013-04-25 09:02:00,53.0,40.0,-100.00,NE,47,5.0,9.0,60,0.00,,,-99.99,,2013-04-25 13:02:00,
2013-04-25 09:11:00,53.0,40.0,-100.00,NE,47,5.0,9.0,60,0.00,,,-99.99,,2013-04-25 13:11:00,
2013-04-25 09:21:00,55.0,40.0,-100.00,NE,45,4.0,7.0,59,0.00,,,-99.99,,2013-04-25 13:21:00,
2013-04-25 09:32:00,55.0,40.0,-100.00,NE,45,4.0,7.0,59,0.00,,,-99.99,,2013-04-25 13:32:00,
2013-04-25 09:42:00,56.0,39.0,-100.00,East,80,5.0,8.0,54,0.00,,,-99.99,,2013-04-25 13:42:00,
2013-04-25 09:53:00,56.0,39.0,-100.00,East,80,5.0,8.0,54,0.00,,,-99.99,,2013-04-25 13:53:00,
2013-04-25 10:02:00,57.0,40.0,-100.00,East,97,6.0,8.0,52,0.00,,,-99.99,,2013-04-25 14:02:00,
2013-04-25 10:11:00,57.0,40.0,-100.00,East,97,6.0,8.0,52,0.00,,,-99.99,,2013-04-25 14:11:00,
2013-04-25 10:21:00,57.0,40.0,-100.00,East,97,6.0,8.0,52,0.00,,,-99.99,,2013-04-25 14:21:00,
2013-04-25 10:32:00,57.0,40.0,-100.00,East,97,6.0,8.0,52,0.00,,,-99.99,,2013-04-25 14:32:00,
2013-04-25 10:42:00,59.0,39.0,-100.00,ENE,66,3.0,5.0,47,0.00,,,-99.99,,2013-04-25 14:42:00,
2013-04-25 10:52:00,59.0,39.0,-100.00,ENE,66,3.0,5.0,47,0.00,,,-99.99,,2013-04-25 14:52:00,
2013-04-25 11:02:00,59.0,39.0,-100.00,ENE,66,3.0,5.0,47,0.00,,,-99.99,,2013-04-25 15:02:00,
2013-04-25 11:11:00,59.0,38.0,-100.00,NE,51,5.0,7.0,46,0.00,,,-99.99,,2013-04-25 15:11:00,
2013-04-25 11:21:00,59.0,38.0,-100.00,NE,51,5.0,7.0,46,0.00,,,-99.99,,2013-04-25 15:21:00,
2013-04-25 11:33:00,61.0,41.0,-100.00,ENE,68,3.0,4.0,47,0.00,,,-99.99,,2013-04-25 15:33:00,
2013-04-25 11:42:00,61.0,41.0,-100.00,ENE,68,3.0,4.0,47,0.00,,,-99.99,,2013-04-25 15:42:00,
2013-04-25 11:53:00,60.0,40.0,-100.00,NE,34,4.0,5.0,46,0.00,,,-99.99,,2013-04-25 15:53:00,
2013-04-25 12:02:00,60.0,40.0,-100.00,NE,34,4.0,5.0,46,0.00,,,-99.99,,2013-04-25 16:02:00,
2013-04-25 12:13:00,60.0,40.0,-100.00,NE,34,4.0,5.0,46,0.00,,,-99.99,,2013-04-25 16:13:00,
2013-04-25 12:24:00,61.0,38.0,-100.00,NE,45,5.0,7.0,43,0.00,,,-99.99,,2013-04-25 16:24:00,
2013-04-25 12:33:00,61.0,38.0,-100.00,NE,45,5.0,7.0,43,0.00,,,-99.99,,2013-04-25 16:33:00,
2013-04-25 12:43:00,61.0,38.0,-100.00,NE,45,5.0,7.0,43,0.00,,,-99.99,,2013-04-25 16:43:00,
2013-04-25 12:53:00,62.0,38.0,-100.00,NNE,32,4.0,6.0,41,0.00,,,-99.99,,2013-04-25 16:53:00,
2013-04-25 13:02:00,62.0,38.0,-100.00,NNE,32,4.0,6.0,41,0.00,,,-99.99,,2013-04-25 17:02:00,
2013-04-25 13:12:00,63.0,41.0,-100.00,NNE,25,3.0,4.0,45,0.00,,,-99.99,,2013-04-25 17:12:00,
2013-04-25 13:22:00,64.0,40.0,-100.00,NE,37,2.0,4.0,41,0.00,,,-99.99,,2013-04-25 17:22:00,
2013-04-25 13:32:00,64.0,40.0,-100.00,NE,37,2.0,4.0,41,0.00,,,-99.99,,2013-04-25 17:32:00,
2013-04-25 13:42:00,64.0,40.0,-100.00,NE,37,2.0,4.0,41,0.00,,,-99.99,,2013-04-25 17:42:00,
2013-04-25 13:53:00,63.0,38.0,-100.00,NE,34,5.0,8.0,38,0.00,,,-99.99,,2013-04-25 17:53:00,
2013-04-25 14:01:00,65.0,44.0,-100.00,East,97,2.0,5.0,47,0.00,,,-99.99,,2013-04-25 18:01:00,
2013-04-25 14:11:00,65.0,44.0,-100.00,East,97,2.0,5.0,47,0.00,,,-99.99,,2013-04-25 18:11:00,
2013-04-25 14:22:00,65.0,44.0,-100.00,East,97,2.0,5.0,47,0.00,,,-99.99,,2013-04-25 18:22:00,
2013-04-25 14:32:00,65.0,37.0,-100.00,WNW,295,2.0,4.0,35,0.00,,,-99.99,,2013-04-25 18:32:00,
2013-04-25 14:42:00,65.0,37.0,-100.00,WNW,295,2.0,4.0,35,0.00,,,-99.99,,2013-04-25 18:42:00,
2013-04-25 14:53:00,65.0,38.0,-100.00,NE,47,3.0,5.0,37,0.00,,,-99.99,,2013-04-25 18:53:00,
2013-04-25 15:02:00,67.0,39.0,-100.00,ESE,120,2.0,4.0,35,0.00,,,-99.99,,2013-04-25 19:02:00,
2013-04-25 15:12:00,67.0,39.0,-100.00,ESE,120,2.0,4.0,35,0.00,,,-99.99,,2013-04-25 19:12:00,
2013-04-25 15:21:00,67.0,39.0,-100.00,ESE,120,2.0,4.0,35,0.00,,,-99.99,,2013-04-25 19:21:00,
2013-04-25 15:32:00,67.0,38.0,-100.00,East,99,2.0,4.0,35,0.00,,,-99.99,,2013-04-25 19:32:00,
2013-04-25 15:42:00,67.0,38.0,-100.00,East,99,2.0,4.0,35,0.00,,,-99.99,,2013-04-25 19:42:00,
2013-04-25 15:52:00,67.0,38.0,-100.00,ENE,58,3.0,6.0,34,0.00,,,-99.99,,2013-04-25 19:52:00,
2013-04-25 16:02:00,67.0,38.0,-100.00,ENE,58,3.0,6.0,34,0.00,,,-99.99,,2013-04-25 20:02:00,
2013-04-25 16:11:00,67.0,40.0,-100.00,NE,52,5.0,6.0,38,0.00,,,-99.99,,2013-04-25 20:11:00,
2013-04-25 16:22:00,67.0,40.0,-100.00,NE,52,5.0,6.0,38,0.00,,,-99.99,,2013-04-25 20:22:00,
2013-04-25 16:32:00,68.0,39.0,-100.00,ENE,58,4.0,6.0,35,0.00,,,-99.99,,2013-04-25 20:32:00,
2013-04-25 16:40:00,69.0,37.0,-100.00,ENE,58,4.0,6.0,31,0.00,,,-99.99,,2013-04-25 20:40:00,
2013-04-25 16:42:00,68.0,39.0,-100.00,ENE,58,4.0,6.0,35,0.00,,,-99.99,,2013-04-25 20:42:00,
2013-04-25 16:52:00,69.0,34.0,-100.00,ENE,78,3.0,5.0,28,0.00,,,-99.99,,2013-04-25 20:52:00,
2013-04-25 17:01:00,69.0,34.0,-100.00,ENE,78,3.0,5.0,28,0.00,,,-99.99,,2013-04-25 21:01:00,
2013-04-25 17:11:00,69.0,37.0,-100.00,ENE,58,4.0,6.0,31,0.00,,,-99.99,,2013-04-25 21:11:00,
2013-04-25 17:22:00,69.0,37.0,-100.00,ENE,58,4.0,6.0,31,0.00,,,-99.99,,2013-04-25 21:22:00,
2013-04-25 17:33:00,69.0,37.0,-100.00,ENE,58,4.0,6.0,31,0.00,,,-99.99,,2013-04-25 21:33:00,
2013-04-25 17:53:00,68.0,36.0,-100.00,NE,49,3.0,5.0,31,0.00,,,-99.99,,2013-04-25 21:53:00,
2013-04-25 18:03:00,69.0,38.0,-100.00,ESE,112,2.0,3.0,32,0.00,,,-99.99,,2013-04-25 22:03:00,
2013-04-25 18:12:00,69.0,38.0,-100.00,ESE,112,2.0,3.0,32,0.00,,,-99.99,,2013-04-25 22:12:00,
2013-04-25 18:22:00,69.0,38.0,-100.00,ESE,112,2.0,3.0,32,0.00,,,-99.99,,2013-04-25 22:22:00,
2013-04-25 18:33:00,68.0,36.0,-100.00,East,79,2.0,4.0,30,0.00,,,-99.99,,2013-04-25 22:33:00,
2013-04-25 18:42:00,69.0,39.0,-100.00,ESE,102,2.0,2.0,34,0.00,,,-99.99,,2013-04-25 22:42:00,
2013-04-25 18:53:00,69.0,39.0,-100.00,ESE,102,2.0,2.0,34,0.00,,,-99.99,,2013-04-25 22:53:00,
2013-04-25 19:02:00,69.0,39.0,-100.00,ESE,102,2.0,2.0,34,0.00,,,-99.99,,2013-04-25 23:02:00,
2013-04-25 19:12:00,70.0,39.0,-100.00,ENE,76,0.0,1.0,32,0.00,,,-99.99,,2013-04-25 23:12:00,
2013-04-25 19:22:00,70.0,39.0,-100.00,ENE,76,0.0,1.0,32,0.00,,,-99.99,,2013-04-25 23:22:00,
2013-04-25 19:32:00,69.0,40.0,-100.00,ESE,109,1.0,1.0,35,0.00,,,-99.99,,2013-04-25 23:32:00,
2013-04-25 19:42:00,69.0,40.0,-100.00,ESE,109,1.0,1.0,35,0.00,,,-99.99,,2013-04-25 23:42:00,
2013-04-25 19:52:00,66.0,38.0,-100.00,SE,131,0.0,1.0,36,0.00,,,0.00,,2013-04-25 23:52:00,
2013-04-25 20:01:00,66.0,38.0,-100.00,SE,131,0.0,1.0,36,0.00,,,0.00,,2013-04-26 00:01:00,
2013-04-25 20:11:00,62.0,45.0,-100.00,SE,134,1.0,1.0,54,0.00,,,0.00,,2013-04-26 00:11:00,
2013-04-25 20:21:00,62.0,45.0,-100.00,SE,134,1.0,1.0,54,0.00,,,0.00,,2013-04-26 00:21:00,
2013-04-25 20:32:00,59.0,47.0,-100.00,SW,217,0.0,1.0,63,0.00,,,0.00,,2013-04-26 00:32:00,
2013-04-25 20:42:00,59.0,47.0,-100.00,SW,217,0.0,1.0,63,0.00,,,0.00,,2013-04-26 00:42:00,
2013-04-25 20:52:00,57.0,46.0,-100.00,WSW,250,1.0,2.0,67,0.00,,,0.00,,2013-04-26 00:52:00,
2013-04-25 21:01:00,57.0,46.0,-100.00,WSW,250,1.0,2.0,67,0.00,,,0.00,,2013-04-26 01:01:00,
2013-04-25 21:11:00,56.0,44.0,-100.00,WSW,239,1.0,1.0,65,0.00,,,0.00,,2013-04-26 01:11:00,
2013-04-25 21:21:00,55.0,44.0,-100.00,WSW,248,0.0,1.0,66,0.00,,,0.00,,2013-04-26 01:21:00,
2013-04-25 21:32:00,55.0,44.0,-100.00,WSW,248,0.0,1.0,66,0.00,,,0.00,,2013-04-26 01:32:00,
2013-04-25 21:42:00,55.0,44.0,-100.00,WSW,248,0.0,1.0,66,0.00,,,0.00,,2013-04-26 01:42:00,
2013-04-25 21:52:00,54.0,47.0,-100.00,WSW,250,1.0,2.0,75,0.00,,,0.00,,2013-04-26 01:52:00,
2013-04-25 22:02:00,54.0,47.0,-100.00,WSW,250,1.0,2.0,75,0.00,,,0.00,,2013-04-26 02:02:00,
2013-04-25 22:12:00,54.0,47.0,-100.00,WSW,253,2.0,3.0,77,0.00,,,0.00,,2013-04-26 02:12:00,
2013-04-25 22:21:00,53.0,47.0,-100.00,WSW,251,2.0,3.0,80,0.00,,,0.00,,2013-04-26 02:21:00,
2013-04-25 22:32:00,53.0,47.0,-100.00,WSW,251,2.0,3.0,80,0.00,,,0.00,,2013-04-26 02:32:00,
2013-04-25 22:42:00,53.0,47.0,-100.00,WSW,251,2.0,3.0,80,0.00,,,0.00,,2013-04-26 02:42:00,
2013-04-25 22:52:00,53.0,47.0,-100.00,NNW,332,3.0,3.0,79,0.00,,,0.00,,2013-04-26 02:52:00,
2013-04-25 23:01:00,53.0,47.0,-100.00,NNW,332,3.0,3.0,79,0.00,,,0.00,,2013-04-26 03:01:00,
2013-04-25 23:11:00,52.0,46.0,-100.00,NNW,344,2.0,2.0,81,0.00,,,0.00,,2013-04-26 03:11:00,
2013-04-25 23:22:00,52.0,46.0,-100.00,NNW,344,2.0,2.0,81,0.00,,,0.00,,2013-04-26 03:22:00,
2013-04-25 23:33:00,51.0,46.0,-100.00,North,357,3.0,3.0,83,0.00,,,0.00,,2013-04-26 03:33:00,
2013-04-25 23:43:00,51.0,46.0,-100.00,North,357,3.0,3.0,83,0.00,,,0.00,,2013-04-26 03:43:00,
2013-04-25 23:53:00,51.0,46.0,-100.00,NW,309,2.0,3.0,84,0.00,,,0.00,,2013-04-26 03:53:00,